Location: Dresden
(51.0483°N, 13.7137°E)
Time: 11:40:17
(UTC+01:00)

ISS - Pass Details

Date: 11 February 2018
Orbit: 403 x 407 km, 51.6° (Epoch: 22 February)

Event Time Altitude Azimuth Distance (km) Brightness Sun altitude
Rises 17:47:59 0° 285° (WNW) 2,322 1.2 -5.9°
Reaches altitude 10° 17:50:09 10° 277° (W) 1,460 0.3 -6.2°
Maximum altitude 17:53:13 38° 208° (SSW) 633 -2.4 -6.7°
Drops below altitude 10° 17:56:16 10° 138° (SE) 1,455 -1.3 -7.2°
Sets 17:58:25 0° 130° (SE) 2,312 -0.4 -7.5°
